Montana Department of Transportation

Main Content

Accidents and Incidents Report

Hourly Weather Roundup

ASUS45 KTFX 230419
RWRMT 
MONTANA HOURLY WEATHER ROUNDUP
NATIONAL WEATHER SERVICE GREAT FALLS MT
919 PM MST SAT NOV 22 2014

NOTE: "FAIR" INDICATES FEW OR NO CLOUDS BELOW 12000 FEET WITH NO
SIGNIFICANT WEATHER AND/OR OBSTRUCTIONS TO VISIBILITY.

* THESE STATIONS ARE NOT UNDER NWS QUALITY CONTROL. THEY DO NOT
   REPORT WEATHER SUCH AS PRECIPITATION OR FOG.

MTZ001.007-043-230500-
WEST OF THE DIVIDE
CITY           SKY/WX    TMP DP  RH WIND       PRES   REMARKS
KALISPELL      CLOUDY    34  27  76 SE10      29.73R WCI  26 
MISSOULA       CLOUDY    34  27  76 NW6       29.78R WCI  29 
BUTTE          LGT SNOW  28  23  81 NW9       29.71R VSB 2 1/2 WCI  19 
MULLAN PASS    LGT SNOW  25  25 100 VRB6G17   29.74R VSB 1/2  WCI  18 
* EUREKA APT   PTCLDY    37  21  52 E3        29.73R 
* HAMILTON APT CLOUDY    34  30  85 SW2       29.78R 
* LIBBY APT    PTCLDY    36  25  64 E3        29.78R 
* LINCOLN      N/A       31  24  75 SW6G17     N/A   WCI  25 
* LOOKOUT PASS N/A       29  28  96 NE4        N/A   
* POLSON       N/A       31  26  82 SW2        N/A   
* RONAN APT    MOCLDY    36  27  70 N/A        N/A   
* SEELEY LAKE  N/A       32  23  69 NE2G12     N/A   
* THOMP F APT  MOCLDY    21  15  78 N3G8       N/A   
* YAAK HILL    N/A       34  23  64 E1         N/A   
--------------------------------

MTZ008-052.055-230500-
SOUTHWEST MONTANA
CITY           SKY/WX    TMP DP  RH WIND       PRES   REMARKS
BOZEMAN        MOCLDY    36  19  50 W17       29.70R WCI  26 
DILLON         PTCLDY    28  16  61 S9        29.73R WCI  19 
* W YELLOWSTON CLEAR     13  10  88 S2         N/A   
* ENNIS APT    PTCLDY    34  16  48 SE3        N/A   
* THREE FORKS  PTCLDY    37  19  48 W8         N/A   WCI  31 
* BOULDER HILL N/A       30  11  45 SW4G9      N/A   
* MONIDA PASS  N/A       20   9  62 N3         N/A   
* RAYNOLDS PAS N/A       23 -22  12 VRB6G12    N/A   WCI  16 
* WHITEHALL    N/A       28  16  61 NW7G14     N/A   WCI  21 
* WISE RIVER   N/A       27  17  66 NW7G14     N/A   WCI  19 
--------------------------------

MTZ009.010-012-014-046-048-049-054-230500-
EAST SLOPES AND CENTRAL MONTANA
CITY           SKY/WX    TMP DP  RH WIND       PRES   REMARKS
CUT BANK       CLOUDY    34  19  54 W23       29.53R WCI  22 
GREAT FALLS    PTCLDY    34  18  52 W15       29.58R WCI  24 
HELENA         PTCLDY    36  19  50 W14       29.66R WCI  27 
MALMSTROM AFB  PTCLDY    36  18  48 W14G23    29.60R WCI  27 
* CONRAD       PTCLDY    37  19  48 SW18G24    N/A   WCI  27 
* DEARBORN     N/A       40  19  43 S13G20     N/A   WCI  32 
* EAST GLACIER N/A       31  14  49 W19G37     N/A   WCI  19 
* MONARCH      N/A       29  10  45 W14G19     N/A   WCI  18 
* PENDROY      N/A       32  15  49 NW14G22    N/A   WCI  22 
* ROGERS PASS  N/A       27  21  78 SE8G17     N/A   WCI  19 
* SAINT MARY   N/A       33  19  56 SW10G30    N/A   WCI  25 
* SWEET GRASS  N/A       36  19  50 NW17G26    N/A   WCI  26 
* WHITE SULPH  N/A       32  17  54 W6G23      N/A   WCI  26 
--------------------------------

MTZ011-013-016-021-035-040-045-047-050-051-230500-
NORTH CENTRAL MONTANA
CITY           SKY/WX    TMP DP  RH WIND       PRES   REMARKS
HAVRE          CLOUDY    37  30  76 W28G36    29.50R WCI  25 
LEWISTOWN      CLOUDY    36  18  48 W15       29.56R WCI  27 
* N BAR RANCH  MOCLDY    36  14  40 NW16G26   29.51R WCI  26 
* CHINOOK      MOCLDY    37  30  76 W23G31    29.46R WCI  26 
* FORT BENTON  CLOUDY    39  21  48 SW10      29.59R WCI  32 
* CHESTER      N/A       38  22  53 NW25G39    N/A   WCI  27 
* DENTON       N/A       37  17  44 W7G13      N/A   WCI  32 
* GEYSER       N/A       34  12  40 W19G27     N/A   WCI  23 
* JUDITH GAP   N/A       32  13  45 NW14G20    N/A   WCI  22 
* LOMA         N/A       40  22  49 SW17G26    N/A   WCI  31 
--------------------------------

MTZ017.020-022.027-061-062-230500-
NORTHEAST MONTANA
CITY           SKY/WX    TMP DP  RH WIND       PRES   REMARKS
GLASGOW        CLOUDY    37  30  76 W30G43    29.33R WCI  24 
GLENDIVE       MOCLDY    37  27  67 W16G23    29.39R WCI  28 
JORDAN         PTCLDY    36  32  85 W22G30    29.45R WCI  25 
SIDNEY         MOCLDY    41  27  58 SW15G22   29.34S 
WOLF POINT     PTCLDY    39  30  70 W24G36    29.32R WCI  28 
* BEAVER HILL  N/A       41  27  58 W17G26     N/A   
* CIRCLE       N/A       40  33  76 SW28       N/A   WCI  29 
* LINDSAY DVD  N/A       38  24  57 W21G30     N/A   WCI  28 
* NAVAJO       N/A       37  29  73 W24G30     N/A   WCI  26 
* PLENTYWOOD A CLEAR     37  28  70 SW15G22   29.22S WCI  28 
* POPLAR APT   PTCLDY    39  30  70 N/A       29.31R 
* SACO         N/A       39  32  76 SW32G40    N/A   WCI  27 
--------------------------------

MTZ028.042-056.058-230500-
SOUTHCENTRAL AND SOUTHEAST MONTANA
CITY           SKY/WX    TMP DP  RH WIND       PRES   REMARKS
BAKER          CLOUDY    41  28  60 NW14      29.42R 
BILLINGS       FAIR      37  14  39 W17G25    29.57R WCI  27 
LIVINGSTON     CLOUDY    37  16  42 CALM      29.65R 
MILES CITY     PTCLDY    39  21  48 W15       29.46R WCI  31 
* BIG TIMBER A MOCLDY    37  16  42 W31G40    29.57F WCI  24 
* FORSYTH APT  PTCLDY    41  19  41 W15G22    29.49R 
* LAUREL APT   CLEAR     41  12  30 W18G29     N/A   
* ALZADA       N/A       35  34  96 N/A        N/A   
* HYSHAM       N/A       39  12  33 NW13G19    N/A   WCI  31 
* LAME DEER    N/A       36  16  44 W15G22     N/A   WCI  27 
* REED POINT   N/A       41  16  36 W23G42     N/A   
* ROSCOE HILL  N/A       33   3  28 W12G25     N/A   WCI  24 
--------------------------------

REGIONAL REPORTS...DAKOTAS
CITY           SKY/WX    TMP DP  RH WIND       PRES   REMARKS
WILLISTON      CLOUDY    41  27  58 W17       29.28F 
DICKINSON      MOCLDY    39  34  82 W15       29.34R WCI  31 
BEACH          CLOUDY    39  32  76 W14G22    29.38R WCI  31 
CROSBY         CLEAR     36  28  73 SW14      29.22S WCI  27 
TIOGA          PTCLDY    36  32  85 SW16      29.28F WCI  26 
BISMARCK       PTCLDY    32  30  92 W6        29.34S WCI  26 
GRAND FORKS    CLOUDY    34  30  85 S17       29.37R WCI  23 
FARGO          FOG       36  32  85 S12G23    29.38F WCI  28 
BUFFALO SD     CLOUDY    41  34  76 W14       29.37S 
RAPID CITY     CLOUDY    43  30  60 NW9       29.43R 
--------------------------------

REGIONAL REPORTS...WYOMING/IDAHO/WASHINGTON
CITY           SKY/WX    TMP DP  RH WIND       PRES   REMARKS
GILLETTE       CLOUDY    37  23  57 NW14      29.53R WCI  28 
SHERIDAN       MOCLDY    36  25  64 W8        29.56R WCI  30 
CODY           PTCLDY    37   9  31 NW7G32    29.59R WCI  32 
YELLOWSTONE LA PTCLDY    16   9  74 NW5       29.71R WCI   8 
SALMON         CLOUDY    32  19  59 CALM      29.78R 
MULLAN PASS    LGT SNOW  25  25 100 VRB6G17   29.74S VSB 1/2  WCI  18 
SAND POINT     PTCLDY    37  32  82 SW7       29.83R WCI  32 
SPOKANE        FAIR      34  30  85 SW8       29.86R WCI  27 
--------------------------------

REGIONAL REPORTS...ALBERTA
CITY           SKY/WX    TMP DP  RH WIND       PRES   REMARKS
CALGARY        MOCLDY    28  25  89 N6        29.53R WCI  21 
LETHBRIDGE     CLOUDY    34  32  92 W8        29.56R WCI  27 
MEDICINE HAT   CLOUDY    34  28  79 NW16G22   29.50R WCI  24 
EDMONTON       LGT SNOW  21  18  88 N14       29.59R VSB 3    WCI   8 
WATERTON GATE  N/A       36  14  40 W21G36     N/A   WCI  25 
CARDSTON       N/A       34  18  52 W12G21     N/A   WCI  25 
MILK RIVER     N/A       32  30  92 N17        N/A   WCI  21 
--------------------------------

REGIONAL REPORTS...SASKATCHEWAN
CITY           SKY/WX    TMP DP  RH WIND       PRES   REMARKS
SWIFT CURRENT  LGT SNOW  23  21  92 NW28G38   29.25R WCI   6 
REGINA         LGT RAIN  36  34  92 W8        29.12R WCI  30 
VAL MARIE      N/A       36  30  79 W22G28     N/A   WCI  25 
ASSINIBOIA     N/A       34  34 100 W23G29     N/A   WCI  22 
CORONACH       N/A       37  30  76 W21G31     N/A   WCI  26 

--------------------------------